| time (UTC) | temp F | wind direction | speed MPH | gust MPH | rain 1hr in | rain 24hr in | rain mn in | humidity % | barometer mb |
| 20260510033119 | 60 | 360 | 0.0 | 0.0 | 0.00 | 0.18 | 0.18 | 81 | 1010.0 |
| 20260510031600 | 61 | 360 | 0.0 | 0.0 | 0.00 | 0.18 | 0.18 | 80 | 1010.1 |
| 20260510030058 | 61 | 360 | 0.0 | 0.0 | 0.00 | 0.18 | 0.18 | 79 | 1010.0 |
| 20260510024602 | 62 | 360 | 0.0 | 0.0 | 0.00 | 0.18 | 0.18 | 79 | 1009.9 |
| 20260510023058 | 62 | 360 | 0.0 | 0.0 | 0.00 | 0.18 | 0.18 | 79 | 1009.8 |
| 20260510021557 | 63 | 360 | 0.0 | 0.0 | 0.00 | 0.18 | 0.18 | 78 | 1009.7 |
| 20260510020057 | 63 | 360 | 0.0 | 0.0 | 0.00 | 0.18 | 0.18 | 77 | 1009.6 |
| 20260510014557 | 64 | 360 | 0.0 | 1.0 | 0.00 | 0.18 | 0.18 | 76 | 1009.4 |
| 20260510013057 | 64 | 360 | 0.0 | 1.0 | 0.00 | 0.18 | 0.18 | 75 | 1009.2 |
| 20260510011558 | 65 | 360 | 0.0 | 1.0 | 0.00 | 0.18 | 0.18 | 73 | 1009.0 |
| 20260510010055 | 66 | 360 | 0.0 | 0.0 | 0.00 | 0.18 | 0.18 | 72 | 1008.8 |
| 20260510004558 | 66 | 360 | 0.0 | 1.0 | 0.00 | 0.18 | 0.18 | 71 | 1008.8 |
| 20260510003111 | 67 | 360 | 0.0 | 1.0 | 0.00 | 0.18 | 0.18 | 69 | 1008.6 |
| 20260510001554 | 68 | 360 | 0.0 | 4.0 | 0.00 | 0.18 | 0.18 | 68 | 1008.5 |
| 20260510000100 | 69 | 360 | 0.0 | 0.0 | 0.00 | 0.18 | 0.18 | 65 | 1008.3 |
| 20260509234604 | 69 | 360 | 0.0 | 0.0 | 0.00 | 0.18 | 0.18 | 64 | 1008.3 |
| 20260509233053 | 70 | 360 | 0.0 | 2.0 | 0.00 | 0.18 | 0.18 | 62 | 1008.1 |
| 20260509231555 | 70 | 360 | 0.0 | 0.0 | 0.00 | 0.18 | 0.18 | 62 | 1008.0 |
| 20260509230058 | 70 | 360 | 0.0 | 3.0 | 0.00 | 0.18 | 0.18 | 62 | 1008.1 |
| 20260509224551 | 70 | 360 | 0.0 | 1.0 | 0.00 | 0.18 | 0.18 | 62 | 1008.1 |
| 20260509223052 | 70 | 360 | 0.0 | 3.0 | 0.00 | 0.18 | 0.18 | 62 | 1008.0 |
| 20260509221551 | 70 | 360 | 0.0 | 0.0 | 0.00 | 0.18 | 0.18 | 61 | 1008.1 |
| 20260509220016 | 70 | 360 | 0.0 | 0.0 | 0.00 | 0.18 | 0.18 | 61 | 1008.1 |
| 20260509214515 | 70 | 360 | 0.0 | 5.0 | 0.00 | 0.18 | 0.18 | 60 | 1008.2 |
| 20260509213014 | 70 | 360 | 0.0 | 2.0 | 0.00 | 0.18 | 0.18 | 64 | 1008.1 |
| 20260509211512 | 69 | 360 | 0.0 | 3.0 | 0.00 | 0.18 | 0.18 | 65 | 1008.1 |
| 20260509210014 | 69 | 360 | 0.0 | 3.0 | 0.00 | 0.18 | 0.18 | 63 | 1008.0 |
| 20260509204509 | 69 | 360 | 0.0 | 3.0 | 0.00 | 0.18 | 0.18 | 68 | 1008.0 |
| 20260509203008 | 68 | 360 | 0.0 | 5.0 | 0.00 | 0.18 | 0.18 | 65 | 1007.9 |
| 20260509201508 | 67 | 360 | 0.0 | 5.0 | 0.00 | 0.18 | 0.18 | 74 | 1008.0 |
| 20260509200007 | 66 | 360 | 3.0 | 8.0 | 0.00 | 0.18 | 0.18 | 73 | 1008.3 |
| 20260509194504 | 66 | 360 | 0.0 | 1.0 | 0.00 | 0.18 | 0.18 | 78 | 1008.5 |
| 20260509193059 | 65 | 360 | 0.0 | 2.0 | 0.00 | 0.18 | 0.18 | 81 | 1008.9 |
| 20260509191558 | 65 | 360 | 0.0 | 0.0 | 0.00 | 0.18 | 0.18 | 85 | 1009.1 |
| 20260509190058 | 65 | 360 | 0.0 | 2.0 | 0.18 | 0.18 | 0.18 | 85 | 1009.2 |
| 20260509184556 | 65 | 360 | 0.0 | 0.0 | 0.18 | 0.18 | 0.18 | 83 | 1009.2 |
| 20260509183133 | 65 | 360 | 0.0 | 0.0 | 0.18 | 0.18 | 0.18 | 78 | 1009.3 |
| 20260509181607 | 67 | 360 | 0.0 | 0.0 | 0.18 | 0.18 | 0.18 | 71 | 1009.8 |
| 20260509180050 | 68 | 360 | 0.0 | 1.0 | 0.00 | 0.00 | 0.00 | 63 | 1009.9 |
| 20260509174547 | 68 | 360 | 0.0 | 1.0 | 0.00 | 0.00 | 0.00 | 61 | 1010.1 |
| 20260509173047 | 68 | 360 | 0.0 | 3.0 | 0.00 | 0.00 | 0.00 | 61 | 1010.0 |
| 20260509171545 | 68 | 360 | 1.0 | 4.0 | 0.00 | 0.00 | 0.00 | 60 | 1010.1 |
| 20260509170042 | 68 | 360 | 0.0 | 6.0 | 0.00 | 0.00 | 0.00 | 62 | 1010.2 |
| 20260509164537 | 67 | 360 | 2.0 | 7.0 | 0.00 | 0.00 | 0.00 | 62 | 1010.4 |
| 20260509163037 | 67 | 360 | 2.0 | 6.0 | 0.00 | 0.00 | 0.00 | 62 | 1010.4 |
| 20260509161537 | 67 | 360 | 0.0 | 5.0 | 0.00 | 0.00 | 0.00 | 63 | 1010.3 |
| 20260509160035 | 67 | 360 | 1.0 | 5.0 | 0.00 | 0.00 | 0.00 | 61 | 1010.4 |
| 20260509154533 | 67 | 360 | 3.0 | 8.0 | 0.00 | 0.00 | 0.00 | 60 | 1010.5 |
| 20260509153031 | 67 | 360 | 0.0 | 9.0 | 0.00 | 0.00 | 0.00 | 62 | 1010.7 |
| 20260509151527 | 66 | 360 | 1.0 | 5.0 | 0.00 | 0.00 | 0.00 | 64 | 1010.8 |
| 20260509150023 | 64 | 360 | 0.0 | 2.0 | 0.00 | 0.00 | 0.00 | 66 | 1011.0 |
| 20260509144528 | 62 | 360 | 0.0 | 3.0 | 0.00 | 0.00 | 0.00 | 68 | 1011.3 |
| 20260509143016 | 61 | 360 | 0.0 | 3.0 | 0.00 | 0.00 | 0.00 | 70 | 1011.5 |
| 20260509141514 | 60 | 360 | 0.0 | 5.0 | 0.00 | 0.00 | 0.00 | 68 | 1011.5 |
| 20260509140013 | 60 | 360 | 0.0 | 2.0 | 0.00 | 0.00 | 0.00 | 69 | 1011.4 |
| 20260509134513 | 60 | 360 | 0.0 | 3.0 | 0.00 | 0.00 | 0.00 | 69 | 1011.4 |
| 20260509133012 | 60 | 360 | 0.0 | 4.0 | 0.00 | 0.00 | 0.00 | 69 | 1011.5 |
| 20260509131511 | 60 | 360 | 1.0 | 7.0 | 0.00 | 0.00 | 0.00 | 68 | 1011.5 |
| 20260509130012 | 60 | 360 | 0.0 | 4.0 | 0.00 | 0.00 | 0.00 | 68 | 1011.6 |
| 20260509124511 | 60 | 360 | 0.0 | 2.0 | 0.00 | 0.00 | 0.00 | 68 | 1011.4 |
| 20260509123009 | 59 | 360 | 0.0 | 2.0 | 0.00 | 0.00 | 0.00 | 67 | 1011.2 |
| 20260509121508 | 59 | 360 | 1.0 | 5.0 | 0.00 | 0.00 | 0.00 | 66 | 1011.2 |
| 20260509120008 | 59 | 360 | 0.0 | 6.0 | 0.00 | 0.00 | 0.00 | 65 | 1011.3 |
| 20260509114507 | 59 | 360 | 2.0 | 6.0 | 0.00 | 0.00 | 0.00 | 64 | 1011.3 |
| 20260509113006 | 59 | 360 | 0.0 | 4.0 | 0.00 | 0.00 | 0.00 | 64 | 1011.2 |
| 20260509111504 | 58 | 360 | 1.0 | 6.0 | 0.00 | 0.00 | 0.00 | 63 | 1011.1 |
| 20260509110003 | 58 | 360 | 0.0 | 5.0 | 0.00 | 0.00 | 0.00 | 61 | 1011.2 |
| 20260509104503 | 58 | 360 | 0.0 | 3.0 | 0.00 | 0.00 | 0.00 | 59 | 1011.2 |
| 20260509103004 | 58 | 360 | 0.0 | 2.0 | 0.00 | 0.00 | 0.00 | 59 | 1010.9 |
| 20260509101502 | 58 | 360 | 0.0 | 1.0 | 0.00 | 0.00 | 0.00 | 59 | 1010.9 |
| 20260509100001 | 58 | 360 | 0.0 | 1.0 | 0.00 | 0.00 | 0.00 | 60 | 1010.7 |
| 20260509094600 | 58 | 360 | 0.0 | 2.0 | 0.00 | 0.00 | 0.00 | 59 | 1010.7 |
| 20260509093100 | 58 | 360 | 0.0 | 2.0 | 0.00 | 0.00 | 0.00 | 60 | 1010.9 |
| 20260509091558 | 58 | 360 | 0.0 | 2.0 | 0.00 | 0.00 | 0.00 | 60 | 1011.0 |
| 20260509090100 | 58 | 360 | 0.0 | 3.0 | 0.00 | 0.00 | 0.00 | 61 | 1011.0 |
| 20260509084558 | 58 | 360 | 0.0 | 2.0 | 0.00 | 0.00 | 0.00 | 62 | 1011.1 |
| 20260509083055 | 58 | 360 | 0.0 | 2.0 | 0.00 | 0.00 | 0.00 | 62 | 1011.2 |
| 20260509081553 | 58 | 360 | 0.0 | 3.0 | 0.00 | 0.00 | 0.00 | 62 | 1011.5 |
| 20260509080056 | 58 | 360 | 0.0 | 3.0 | 0.00 | 0.00 | 0.00 | 61 | 1011.7 |
| 20260509074552 | 58 | 360 | 0.0 | 3.0 | 0.00 | 0.00 | 0.00 | 61 | 1011.6 |
| 20260509073051 | 58 | 360 | 1.0 | 4.0 | 0.00 | 0.00 | 0.00 | 61 | 1011.7 |
| 20260509071549 | 58 | 360 | 1.0 | 5.0 | 0.00 | 0.00 | 0.00 | 61 | 1011.6 |
| 20260509070049 | 58 | 360 | 1.0 | 5.0 | 0.00 | 0.00 | 0.00 | 59 | 1011.7 |
| 20260509064551 | 58 | 360 | 1.0 | 4.0 | 0.00 | 0.00 | 0.00 | 59 | 1011.8 |
| 20260509063046 | 58 | 360 | 0.0 | 4.0 | 0.00 | 0.00 | 0.00 | 58 | 1011.9 |
| 20260509061545 | 58 | 360 | 1.0 | 6.0 | 0.00 | 0.00 | 0.00 | 58 | 1012.0 |
| 20260509060044 | 58 | 360 | 1.0 | 3.0 | 0.00 | 0.00 | 0.00 | 58 | 1012.1 |
| 20260509054544 | 58 | 360 | 0.0 | 3.0 | 0.00 | 0.00 | 0.00 | 58 | 1012.1 |
| 20260509053043 | 58 | 360 | 1.0 | 5.0 | 0.00 | 0.00 | 0.00 | 57 | 1012.2 |
| 20260509051542 | 58 | 360 | 1.0 | 3.0 | 0.00 | 0.00 | 0.00 | 57 | 1012.2 |
| 20260509050045 | 59 | 360 | 1.0 | 3.0 | 0.00 | 0.00 | 0.00 | 56 | 1012.2 |
| 20260509044538 | 59 | 360 | 1.0 | 3.0 | 0.00 | 0.00 | 0.00 | 57 | 1012.1 |
| 20260509043037 | 60 | 360 | 0.0 | 3.0 | 0.00 | 0.00 | 0.00 | 56 | 1012.1 |
| 20260509041536 | 60 | 360 | 0.0 | 3.0 | 0.00 | 0.00 | 0.00 | 54 | 1012.2 |
| 20260509040035 | 60 | 360 | 1.0 | 5.0 | 0.00 | 0.00 | 0.00 | 54 | 1012.2 |
| 20260509034532 | 61 | 360 | 1.0 | 3.0 | 0.00 | 0.00 | 0.00 | 52 | 1012.2 |